Date,TemperatureHighF,TemperatureAvgF,TemperatureLowF,DewpointHighF,DewpointAvgF,DewpointLowF,HumidityHigh,HumidityAvg,HumidityLow,PressureMaxIn,PressureMinIn,WindSpeedMaxMPH,WindSpeedAvgMPH,GustSpeedMaxMPH,PrecipitationSumIn
2013-4-1,74.4,69.8,66.6,70.0,67.1,64.0,96,90,85,30.01,29.93,7,2,0,0.00
2013-4-2,73.5,68.9,65.2,67.0,65.6,64.0,97,89,79,30.06,29.97,6,1,0,0.00
2013-4-3,77.3,71.0,66.3,70.0,67.5,63.0,95,88,76,30.04,29.91,12,3,0,0.01
2013-4-4,72.8,70.6,67.8,70.0,68.4,66.0,97,92,82,30.01,29.85,12,5,0,0.05
2013-4-5,70.1,66.8,62.5,67.0,62.1,58.0,94,85,68,29.96,29.78,14,7,0,0.06
2013-4-6,69.3,63.5,57.7,62.0,57.6,53.0,90,81,70,30.07,29.96,14,7,0,0.03
2013-4-7,79.0,71.5,63.7,66.0,62.0,59.0,93,73,53,30.11,30.01,8,3,0,0.02
2013-4-8,80.6,73.3,67.7,69.0,64.0,60.0,86,74,51,30.09,30.00,7,3,0,0.02
2013-4-9,81.7,73.8,68.0,70.0,66.4,65.0,90,78,61,30.11,30.02,14,3,0,0.01
2013-4-10,83.6,75.6,67.9,72.0,67.6,65.0,92,77,56,30.07,29.93,9,2,0,0.00
2013-4-11,82.1,76.4,72.5,74.0,72.1,67.0,94,86,74,29.94,29.77,13,5,0,0.00
2013-4-12,76.6,75.3,72.5,74.0,73.1,68.0,96,93,82,29.88,29.75,20,7,0,0.00
2013-4-13,79.3,74.7,71.3,71.0,69.4,67.0,94,84,74,29.95,29.84,9,2,0,0.00
2013-4-14,79.7,74.8,69.3,75.0,70.5,63.0,94,86,73,29.96,29.82,23,6,0,0.00
2013-4-15,83.5,76.5,71.1,72.0,68.1,64.0,83,75,66,30.03,29.89,11,2,0,0.00
2013-4-16,87.1,79.2,72.7,76.0,71.9,69.0,94,79,60,30.09,29.98,13,4,0,0.00
2013-4-17,83.5,77.5,71.9,73.0,68.8,64.0,90,75,55,30.09,29.97,16,5,0,0.00
2013-4-18,85.3,77.8,71.8,74.0,71.2,68.0,89,80,65,30.00,29.90,14,3,0,0.00
2013-4-19,81.7,78.1,74.6,76.0,74.2,72.0,92,87,78,29.97,29.89,17,5,0,0.00
2013-4-20,76.9,70.2,63.6,75.0,65.9,61.0,94,86,78,30.11,29.93,16,8,0,0.02
2013-4-21,80.5,70.4,62.7,72.0,65.9,60.0,94,86,69,30.10,29.98,12,7,0,0.00
2013-4-22,78.5,72.4,68.1,70.0,68.7,65.0,98,88,72,30.04,29.94,17,6,0,0.02
2013-4-23,80.4,72.9,67.2,70.0,66.6,64.0,93,81,65,30.07,29.98,15,7,0,0.00
2013-4-24,81.6,73.6,66.5,69.0,66.2,64.0,91,78,60,30.10,30.03,11,4,0,0.00
2013-4-25,80.7,75.4,70.4,72.0,68.7,67.0,89,80,69,30.17,30.07,12,3,0,0.00
2013-4-26,81.0,76.4,72.1,72.0,68.8,66.0,85,77,66,30.20,30.11,11,3,0,0.00
2013-4-27,81.5,76.8,72.2,72.0,69.3,64.0,92,78,56,30.17,30.04,13,5,0,0.00
2013-4-28,83.2,76.6,71.3,71.0,68.1,65.0,84,75,57,30.08,29.93,13,4,0,0.00
2013-4-29,80.8,76.6,70.9,73.0,69.9,65.0,89,80,72,29.98,29.86,11,3,0,0.04
2013-4-30,84.9,77.5,70.5,74.0,71.7,69.0,96,83,67,29.95,29.87,10,3,0,0.02